ROMMA est une association bénévole à but non lucratif. Votre soutien est indispensable : ADHERER à ROMMA ou FAIRE un DON

Chambon - (38, Isère)

Oisans (2460 m)   Longitude: 06° 10' 42" E   Latitude: 45° 01' 32" N Station partenaire n°803
 

Détail journalier du     <<     >>

Température Humidité Vent Dir Rafale Dir. rafale Neige 1 Neige 2
Heure (°C) (%) (km/h) (km/h) (cm) (cm)
01:00 -8.29722NNE30NE184235
02:00 0.0012NE30NE00
03:00 -8.69619NNE30NNE184235
04:00 -8.99621NE36NE184235
05:00 -8.89624NNE37NNE184234
06:00 0.0012NNE37NNE00
07:00 -9.69521NNE42NE186235
08:00 -9.09519NNE29NE185235
09:00 -8.39421NE29NE184235
10:00 0.0010NE25NE00
11:00 -6.59116NNE38NNE183234
12:00 -5.6917N17N183234
13:00 -4.4914N17N183234
14:00 0.001ESE14ESE00
15:00 -3.4907S12S183234
16:00 -2.2908S14SO182234
17:00 -2.29411SO21OSO183233
18:00 0.007OSO21OSO00
19:00 -3.39712OSO22OSO182233
20:00 -4.6979O21O182233
21:00 -5.2997OSO17O182233
22:00 0.005OSO17OSO00
23:00 -5.9991ESE3OSO182233
minuit -5.0937NE29NE182233

Graphique du 29-04-2019

 

Serveur OMMA